GW3593 Weather Reports


time (UTC)temp
C
wind
direction
speed
KPH
gust
KPH
rain 1hr
cm
rain 24hr
cm
rain mn
cm
humidity
%
barometer
mb
20260510202126 28 67 0.0 1.6 0.00 0.00 0.00 40 1019.1
20260510201624 30 148 0.0 1.6 0.00 0.00 0.00 43 1019.0
20260510201120 30 145 0.0 1.6 0.00 0.00 0.00 40 1019.0
20260510200616 29 126 1.6 3.2 0.00 0.00 0.00 39 1019.1
20260510200115 29 108 0.0 3.2 0.00 0.00 0.00 40 1019.1
20260510195612 29 111 1.6 3.2 0.00 0.00 0.00 41 1019.2
20260510195108 28 129 1.6 1.6 0.00 0.00 0.00 42 1019.0
20260510194607 29 147 1.6 1.6 0.00 0.00 0.00 38 1019.2
20260510194104 30 181 1.6 1.6 0.00 0.00 0.00 44 1019.2
20260510193604 30 47 0.0 0.0 0.00 0.00 0.00 40 1019.1
20260510193100 28 358 0.0 1.6 0.00 0.00 0.00 43 1019.0
20260510192555 28 274 1.6 3.2 0.00 0.00 0.00 42 1019.1
20260510192051 28 134 0.0 0.0 0.00 0.00 0.00 50 1019.2
20260510191548 27 133 0.0 1.6 0.00 0.00 0.00 59 1019.1
20260510191045 25 131 0.0 0.0 0.00 0.00 0.00 64 1019.1
20260510190542 25 128 0.0 0.0 0.00 0.00 0.00 63 1019.0
20260510190040 26 128 0.0 0.0 0.00 0.00 0.00 61 1019.4
20260510185536 26 128 0.0 0.0 0.00 0.00 0.00 55 1019.1
20260510185033 27 128 0.0 0.0 0.00 0.00 0.00 50 1019.3
20260510184531 27 129 0.0 0.0 0.00 0.00 0.00 49 1019.2
20260510184026 27 60 0.0 0.0 0.00 0.00 0.00 51 1019.3
20260510183522 28 53 1.6 4.8 0.00 0.00 0.00 43 1019.2
20260510183017 28 166 1.6 1.6 0.00 0.00 0.00 40 1019.4
20260510182515 28 151 1.6 3.2 0.00 0.00 0.00 40 1019.2
20260510182014 28 63 1.6 8.0 0.00 0.00 0.00 44 1019.4
20260510181513 28 206 3.2 3.2 0.00 0.00 0.00 43 1019.3
20260510181008 28 83 0.0 0.0 0.00 0.00 0.00 43 1019.4
20260510180506 27 55 1.6 3.2 0.00 0.00 0.00 45 1019.6
20260510180003 27 111 1.6 1.6 0.00 0.00 0.00 44 1019.4
20260510175458 28 186 0.0 1.6 0.00 0.00 0.00 42 1019.9
20260510174954 28 245 1.6 1.6 0.00 0.00 0.00 45 1019.8
20260510174453 28 132 0.0 1.6 0.00 0.00 0.00 45 1019.6
20260510173949 28 337 0.0 0.0 0.00 0.00 0.00 44 1019.8
20260510173445 27 88 0.0 1.6 0.00 0.00 0.00 46 1019.7
20260510172941 28 120 0.0 1.6 0.00 0.00 0.00 45 1019.9
20260510172437 28 214 0.0 4.8 0.00 0.00 0.00 47 1019.9
20260510171934 28 339 0.0 3.2 0.00 0.00 0.00 49 1019.8
20260510171431 27 64 1.6 1.6 0.00 0.00 0.00 49 1019.9
20260510170927 27 146 0.0 4.8 0.00 0.00 0.00 49 1020.0
20260510170424 27 195 1.6 4.8 0.00 0.00 0.00 46 1020.1
20260510165920 27 101 0.0 1.6 0.00 0.00 0.00 49 1020.0
20260510165416 28 111 1.6 8.0 0.00 0.00 0.00 44 1020.1
20260510164913 28 126 0.0 0.0 0.00 0.00 0.00 43 1020.0
20260510164411 28 246 1.6 1.6 0.00 0.00 0.00 48 1020.1
20260510163910 27 137 0.0 1.6 0.00 0.00 0.00 51 1020.2
20260510163407 26 126 0.0 1.6 0.00 0.00 0.00 56 1020.2
20260510162901 26 58 0.0 3.2 0.00 0.00 0.00 50 1019.9
20260510162359 27 84 1.6 1.6 0.00 0.00 0.00 53 1019.9
20260510161854 26 93 1.6 1.6 0.00 0.00 0.00 53 1019.8
20260510161350 26 136 0.0 3.2 0.00 0.00 0.00 53 1020.0
20260510160848 26 99 3.2 3.2 0.00 0.00 0.00 60 1019.8
20260510160345 25 153 0.0 1.6 0.00 0.00 0.00 63 1019.8
20260510155838 26 252 1.6 1.6 0.00 0.00 0.00 60 1020.1
20260510155336 25 78 0.0 1.6 0.00 0.00 0.00 63 1019.8
20260510154831 26 336 3.2 4.8 0.00 0.00 0.00 61 1020.1
20260510154327 25 152 0.0 1.6 0.00 0.00 0.00 63 1019.9
20260510153822 25 91 1.6 1.6 0.00 0.00 0.00 67 1020.0
20260510153318 25 96 0.0 1.6 0.00 0.00 0.00 65 1020.2
20260510152815 24 292 1.6 3.2 0.00 0.00 0.00 68 1020.0
20260510152312 24 261 3.2 3.2 0.00 0.00 0.00 69 1020.0
20260510151808 24 305 1.6 4.8 0.00 0.00 0.00 72 1020.1
20260510151306 23 213 3.2 3.2 0.00 0.00 0.00 72 1020.1
20260510150801 23 125 1.6 3.2 0.00 0.00 0.00 78 1020.1
20260510150257 22 116 0.0 8.0 0.00 0.00 0.00 79 1019.7
20260510145754 22 97 0.0 1.6 0.00 0.00 0.00 80 1019.8
20260510145251 22 5 1.6 3.2 0.00 0.00 0.00 82 1020.1
20260510144747 22 69 1.6 3.2 0.00 0.00 0.00 82 1020.2
20260510144244 22 119 0.0 1.6 0.00 0.00 0.00 84 1020.3
20260510143743 21 123 0.0 1.6 0.00 0.00 0.00 85 1020.2
20260510143240 21 88 1.6 3.2 0.00 0.00 0.00 86 1019.9
20260510142737 21 164 0.0 1.6 0.00 0.00 0.00 88 1019.9
20260510142234 20 123 0.0 3.2 0.00 0.00 0.00 88 1019.9
20260510141730 20 133 0.0 1.6 0.00 0.00 0.00 89 1020.1
20260510141229 20 116 0.0 0.0 0.00 0.00 0.00 89 1019.9
20260510140726 20 123 0.0 0.0 0.00 0.00 0.00 90 1019.9
20260510140226 20 93 0.0 0.0 0.00 0.00 0.00 91 1020.0
20260510135720 19 135 1.6 1.6 0.00 0.00 0.00 91 1020.0
20260510135216 18 116 0.0 0.0 0.00 0.00 0.00 92 1020.0
20260510134714 18 101 0.0 1.6 0.00 0.00 0.00 93 1020.0
20260510134211 17 125 0.0 0.0 0.00 0.00 0.00 93 1020.0
20260510133706 16 124 0.0 0.0 0.00 0.00 0.00 92 1019.9
20260510133202 16 123 0.0 0.0 0.00 0.00 0.00 93 1019.9
20260510132658 16 128 0.0 0.0 0.00 0.00 0.00 92 1020.0
20260510132156 15 123 0.0 0.0 0.00 0.00 0.00 92 1020.1
20260510131653 15 113 0.0 0.0 0.00 0.00 0.00 91 1020.1
20260510131151 15 115 0.0 0.0 0.00 0.00 0.00 89 1020.0
20260510130647 15 115 0.0 0.0 0.00 0.00 0.00 89 1019.9
20260510130144 14 114 0.0 0.0 0.00 0.00 0.00 90 1019.9
20260510125640 15 115 0.0 0.0 0.00 0.00 0.00 89 1020.0
20260510125137 14 119 0.0 0.0 0.00 0.00 0.00 88 1019.9
20260510124634 15 116 0.0 0.0 0.00 0.00 0.00 85 1019.7
20260510124131 15 112 0.0 0.0 0.00 0.00 0.00 87 1019.9
20260510123626 13 113 0.0 0.0 0.00 0.00 0.00 90 1019.8
20260510123122 13 113 0.0 0.0 0.00 0.00 0.00 92 1019.7
20260510122618 13 114 0.0 0.0 0.00 0.00 0.00 94 1019.6
20260510122114 12 113 0.0 0.0 0.00 0.00 0.00 96 1019.6
20260510121612 12 118 0.0 0.0 0.00 0.00 0.00 97 1019.5
20260510121109 12 113 0.0 0.0 0.00 0.00 0.00 99 1019.5
20260510120607 11 114 0.0 0.0 0.00 0.00 0.00 99 1019.7
20260510115559 10 122 0.0 0.0 0.00 0.00 0.00 99 1019.3
20260510115056 10 123 0.0 0.0 0.00 0.00 0.00 99 1019.3
20260510114552 10 122 0.0 0.0 0.00 0.00 0.00 99 1019.1
20260510114048 9 125 0.0 0.0 0.00 0.00 0.00 99 1019.1
20260510113543 9 125 0.0 0.0 0.00 0.00 0.00 99 1018.9
20260510113041 9 125 0.0 0.0 0.00 0.00 0.00 99 1018.9
20260510112537 9 129 0.0 0.0 0.00 0.00 0.00 99 1018.7
20260510112034 9 130 0.0 0.0 0.00 0.00 0.00 99 1018.6
20260510111531 9 126 0.0 0.0 0.00 0.00 0.00 99 1018.6
20260510111026 9 126 0.0 0.0 0.00 0.00 0.00 99 1018.6
20260510110523 9 126 0.0 0.0 0.00 0.00 0.00 99 1018.4
20260510110019 9 128 0.0 0.0 0.00 0.00 0.00 99 1018.5
20260510105514 9 118 0.0 0.0 0.00 0.00 0.00 99 1018.3
20260510105009 8 118 0.0 0.0 0.00 0.00 0.00 99 1018.2
20260510104507 8 127 0.0 0.0 0.00 0.00 0.00 99 1018.5
20260510104003 8 126 0.0 0.0 0.00 0.00 0.00 99 1018.2
20260510103500 9 128 0.0 0.0 0.00 0.00 0.00 99 1018.3
20260510102955 9 130 0.0 0.0 0.00 0.00 0.00 99 1018.1
20260510102452 9 126 0.0 0.0 0.00 0.00 0.00 99 1017.9
20260510101948 9 128 0.0 0.0 0.00 0.00 0.00 99 1017.9
20260510101446 9 123 0.0 0.0 0.00 0.00 0.00 99 1018.1
20260510100945 9 125 0.0 0.0 0.00 0.00 0.00 99 1018.0
20260510100440 9 126 0.0 0.0 0.00 0.00 0.00 99 1017.9
20260510095937 9 126 0.0 0.0 0.00 0.00 0.00 99 1017.7
20260510095432 9 130 0.0 0.0 0.00 0.00 0.00 99 1017.9
20260510094932 9 134 0.0 0.0 0.00 0.00 0.00 99 1017.9
20260510094426 9 134 0.0 0.0 0.00 0.00 0.00 99 1017.7
20260510093923 9 130 0.0 0.0 0.00 0.00 0.00 99 1017.5
20260510093418 9 124 0.0 0.0 0.00 0.00 0.00 99 1017.5
20260510092915 9 114 0.0 0.0 0.00 0.00 0.00 99 1017.5
20260510092413 9 123 0.0 0.0 0.00 0.00 0.00 99 1017.4
20260510091912 9 129 0.0 0.0 0.00 0.00 0.00 99 1017.5
20260510091410 9 130 0.0 0.0 0.00 0.00 0.00 99 1017.6
20260510090906 9 125 0.0 0.0 0.00 0.00 0.00 99 1017.5
20260510090403 9 120 0.0 0.0 0.00 0.00 0.00 99 1017.5
20260510085859 9 124 0.0 0.0 0.00 0.00 0.00 99 1017.4
20260510085354 9 125 0.0 0.0 0.00 0.00 0.00 99 1017.5
20260510084849 9 128 0.0 0.0 0.00 0.00 0.00 99 1017.4
20260510084347 9 123 0.0 0.0 0.00 0.00 0.00 99 1017.3
20260510083844 9 126 0.0 0.0 0.00 0.00 0.00 99 1017.3
20260510083340 9 122 0.0 0.0 0.00 0.00 0.00 99 1017.3
20260510082836 9 116 0.0 0.0 0.00 0.00 0.00 99 1017.2
20260510082333 9 122 0.0 0.0 0.00 0.00 0.00 99 1017.6
20260510081832 9 125 0.0 0.0 0.00 0.00 0.00 99 1017.4
20260510081328 9 126 0.0 0.0 0.00 0.00 0.00 99 1017.6
20260510080824 9 126 0.0 0.0 0.00 0.00 0.00 99 1017.5
20260510080319 9 125 0.0 0.0 0.00 0.00 0.00 99 1017.4
20260510075817 9 125 0.0 0.0 0.00 0.00 0.00 99 1017.4
20260510075314 10 124 0.0 0.0 0.00 0.00 0.00 99 1017.3
20260510074810 10 125 0.0 0.0 0.00 0.00 0.00 99 1017.1
20260510074308 10 125 0.0 0.0 0.00 0.00 0.00 99 1017.3
20260510073803 10 123 0.0 0.0 0.00 0.00 0.00 99 1016.9
20260510073259 10 123 0.0 0.0 0.00 0.00 0.00 99 1017.0
20260510072755 10 126 0.0 0.0 0.00 0.00 0.00 99 1016.8
20260510072252 10 123 0.0 0.0 0.00 0.00 0.00 99 1016.9
20260510071748 10 119 0.0 0.0 0.00 0.00 0.00 99 1016.8
20260510071245 10 123 0.0 0.0 0.00 0.00 0.00 99 1016.9
20260510070744 10 128 0.0 0.0 0.00 0.00 0.00 99 1016.8
20260510070241 10 130 0.0 0.0 0.00 0.00 0.00 99 1017.0
20260510065740 10 131 0.0 0.0 0.00 0.00 0.00 99 1017.0
20260510065238 10 126 0.0 0.0 0.00 0.00 0.00 99 1017.0
20260510064734 10 124 0.0 0.0 0.00 0.00 0.00 99 1017.2
20260510064232 10 124 0.0 0.0 0.00 0.00 0.00 99 1016.8
20260510063728 10 116 0.0 0.0 0.00 0.00 0.00 99 1017.0
20260510063224 10 122 0.0 0.0 0.00 0.00 0.00 99 1017.1
20260510062721 10 116 0.0 0.0 0.00 0.00 0.00 99 1016.8
20260510062217 10 119 0.0 0.0 0.00 0.00 0.00 99 1016.9
20260510061712 10 125 0.0 0.0 0.00 0.00 0.00 99 1016.9
20260510061210 10 123 0.0 0.0 0.00 0.00 0.00 99 1016.9
20260510060706 10 126 0.0 0.0 0.00 0.00 0.00 99 1016.9
20260510060203 10 129 0.0 0.0 0.00 0.00 0.00 99 1016.9
20260510055659 10 129 0.0 0.0 0.00 0.00 0.00 99 1017.4
20260510055157 10 126 0.0 0.0 0.00 0.00 0.00 99 1017.1
20260510054653 10 125 0.0 0.0 0.00 0.00 0.00 99 1017.1
20260510054149 10 130 0.0 0.0 0.00 0.00 0.00 99 1017.1
20260510053648 11 147 0.0 0.0 0.00 0.00 0.00 99 1017.0
20260510053145 11 106 0.0 0.0 0.00 0.00 0.00 99 1017.0
20260510052640 10 129 0.0 0.0 0.00 0.00 0.00 99 1017.0
20260510052137 11 128 0.0 0.0 0.00 0.00 0.00 99 1016.7
20260510051633 11 123 0.0 0.0 0.00 0.00 0.00 99 1016.8
20260510051129 11 130 0.0 0.0 0.00 0.00 0.00 99 1016.7
20260510050626 11 128 0.0 0.0 0.00 0.00 0.00 99 1016.6
20260510050124 11 125 0.0 0.0 0.00 0.00 0.00 99 1016.8
20260510045621 11 140 0.0 0.0 0.00 0.00 0.00 99 1016.9
20260510045117 11 102 0.0 0.0 0.00 0.00 0.00 99 1016.8
20260510044613 11 132 0.0 0.0 0.00 0.00 0.00 98 1016.8
20260510044111 11 124 0.0 0.0 0.00 0.00 0.00 98 1016.6
20260510043606 11 118 0.0 0.0 0.00 0.00 0.00 99 1016.6
20260510043103 11 112 0.0 0.0 0.00 0.00 0.00 98 1016.7
20260510042601 11 122 0.0 0.0 0.00 0.00 0.00 98 1016.9
20260510042056 11 129 0.0 0.0 0.00 0.00 0.00 98 1016.6
20260510041554 11 131 0.0 0.0 0.00 0.00 0.00 98 1016.8
20260510041051 11 129 0.0 0.0 0.00 0.00 0.00 98 1016.8
20260510040548 12 116 0.0 0.0 0.00 0.00 0.00 98 1016.9
20260510040044 12 125 0.0 0.0 0.00 0.00 0.00 98 1016.8
20260510035540 12 125 0.0 0.0 0.00 0.00 0.00 98 1017.0
20260510035040 12 125 0.0 0.0 0.00 0.00 0.00 98 1016.9
20260510034538 12 120 0.0 0.0 0.00 0.00 0.00 98 1016.7
20260510034035 12 122 0.0 0.0 0.00 0.00 0.00 98 1016.6
20260510033530 12 122 0.0 0.0 0.00 0.00 0.00 98 1016.8
20260510033029 12 123 0.0 0.0 0.00 0.00 0.00 97 1016.9
20260510032525 12 125 0.0 0.0 0.00 0.00 0.00 97 1016.9
20260510032020 12 126 0.0 0.0 0.00 0.00 0.00 97 1017.2
20260510031516 13 118 0.0 0.0 0.00 0.00 0.00 97 1017.0
20260510031012 13 111 0.0 0.0 0.00 0.00 0.00 97 1016.7
20260510030508 13 125 0.0 0.0 0.00 0.00 0.00 97 1016.7
20260510030005 13 125 0.0 0.0 0.00 0.00 0.00 97 1016.5
20260510025502 13 125 0.0 0.0 0.00 0.00 0.00 96 1016.8
20260510025000 13 139 0.0 0.0 0.00 0.00 0.00 96 1016.6
20260510024456 13 125 0.0 0.0 0.00 0.00 0.00 96 1016.4
20260510023952 13 123 0.0 0.0 0.00 0.00 0.00 96 1016.5
20260510023448 13 122 0.0 0.0 0.00 0.00 0.00 95 1016.3
20260510022945 13 122 0.0 0.0 0.00 0.00 0.00 95 1016.3
20260510022444 13 124 0.0 0.0 0.00 0.00 0.00 95 1016.4
20260510021943 14 139 0.0 0.0 0.00 0.00 0.00 95 1016.1
20260510021442 14 125 0.0 0.0 0.00 0.00 0.00 94 1016.2
20260510020939 14 125 0.0 0.0 0.00 0.00 0.00 94 1015.9
20260510020438 15 123 0.0 0.0 0.00 0.00 0.00 94 1015.7
20260510015934 15 125 0.0 0.0 0.00 0.00 0.00 93 1015.8
20260510015431 15 124 0.0 0.0 0.00 0.00 0.00 93 1015.6
20260510014925 15 122 0.0 0.0 0.00 0.00 0.00 92 1015.5
20260510014424 15 116 0.0 0.0 0.00 0.00 0.00 92 1015.7
20260510013920 15 118 0.0 0.0 0.00 0.00 0.00 91 1015.4
20260510013415 15 123 0.0 0.0 0.00 0.00 0.00 91 1015.1
20260510012910 16 125 0.0 0.0 0.00 0.00 0.00 91 1015.0
20260510012405 16 122 0.0 0.0 0.00 0.00 0.00 90 1014.9
20260510011900 16 122 0.0 0.0 0.00 0.00 0.00 89 1014.9
20260510011355 16 125 0.0 0.0 0.00 0.00 0.00 88 1014.9
20260510010852 17 116 0.0 0.0 0.00 0.00 0.00 87 1015.1
20260510010350 17 116 0.0 0.0 0.00 0.00 0.00 86 1014.9
20260510005846 17 110 0.0 0.0 0.00 0.00 0.00 85 1014.9
20260510005342 17 113 0.0 0.0 0.00 0.00 0.00 85 1014.6
20260510004840 18 123 0.0 0.0 0.00 0.00 0.00 83 1014.7
20260510004337 18 121 0.0 0.0 0.00 0.00 0.00 82 1014.7
20260510003835 18 122 0.0 0.0 0.00 0.00 0.00 81 1014.6
20260510003332 19 123 0.0 0.0 0.00 0.00 0.00 79 1014.5
20260510002830 20 124 0.0 0.0 0.00 0.00 0.00 77 1014.3
20260510002328 20 124 0.0 0.0 0.00 0.00 0.00 76 1014.3
20260510001824 20 125 0.0 0.0 0.00 0.00 0.00 75 1014.2
20260510001323 20 126 0.0 0.0 0.00 0.00 0.00 73 1014.3
20260510000818 21 138 0.0 0.0 0.00 0.00 0.00 73 1014.4
20260510000318 21 138 0.0 0.0 0.00 0.00 0.00 70 1014.3
20260509235813 21 138 0.0 0.0 0.00 0.00 0.00 72 1014.3
20260509235309 21 138 0.0 0.0 0.00 0.00 0.00 68 1014.2
20260509234805 22 138 0.0 0.0 0.00 0.00 0.00 68 1014.1
20260509234302 22 138 0.0 0.0 0.00 0.00 0.00 71 1014.2
20260509233800 22 138 0.0 0.0 0.00 0.00 0.00 66 1014.3
20260509233257 22 145 0.0 1.6 0.00 0.00 0.00 63 1014.3
20260509232753 23 138 0.0 1.6 0.00 0.00 0.00 64 1014.1
20260509232251 23 138 0.0 0.0 0.00 0.00 0.00 64 1014.1
20260509231747 23 158 1.6 1.6 0.00 0.00 0.00 63 1014.2
20260509231244 23 166 0.0 0.0 0.00 0.00 0.00 64 1014.2
20260509230742 23 122 0.0 1.6 0.00 0.00 0.00 62 1014.1
20260509230238 25 142 0.0 1.6 0.00 0.00 0.00 59 1014.0
20260509225733 25 159 1.6 1.6 0.00 0.00 0.00 54 1013.9
20260509225230 24 137 0.0 0.0 0.00 0.00 0.00 56 1013.9
20260509224725 25 125 0.0 0.0 0.00 0.00 0.00 58 1014.0
20260509224223 25 109 0.0 0.0 0.00 0.00 0.00 52 1013.8
20260509223720 25 99 0.0 1.6 0.00 0.00 0.00 52 1013.6
20260509223217 25 70 1.6 1.6 0.00 0.00 0.00 49 1013.7
20260509222714 25 132 0.0 3.2 0.00 0.00 0.00 48 1013.8
20260509222209 26 127 0.0 1.6 0.00 0.00 0.00 48 1013.8
20260509221705 27 167 0.0 3.2 0.00 0.00 0.00 51 1013.6
20260509221201 27 148 0.0 1.6 0.00 0.00 0.00 50 1013.7
20260509220657 26 126 0.0 1.6 0.00 0.00 0.00 46 1013.6
20260509220154 27 138 0.0 0.0 0.00 0.00 0.00 45 1013.6
20260509215649 26 132 0.0 0.0 0.00 0.00 0.00 50 1013.7
20260509215147 27 102 0.0 3.2 0.00 0.00 0.00 46 1013.5
20260509214643 27 118 0.0 1.6 0.00 0.00 0.00 47 1013.8
20260509214140 27 139 0.0 1.6 0.00 0.00 0.00 47 1013.8
20260509213637 27 151 0.0 0.0 0.00 0.00 0.00 50 1013.8
20260509213133 26 96 0.0 3.2 0.00 0.00 0.00 47 1013.5
20260509212631 27 142 1.6 4.8 0.00 0.00 0.00 47 1013.7
20260509212127 26 152 0.0 0.0 0.00 0.00 0.00 53 1013.9
20260509211623 27 136 0.0 1.6 0.00 0.00 0.00 50 1013.8
20260509211120 26 135 1.6 1.6 0.00 0.00 0.00 46 1013.4
20260509210617 27 164 1.6 1.6 0.00 0.00 0.00 46 1013.6
20260509210114 26 108 1.6 1.6 0.00 0.00 0.00 47 1013.9
20260509205608 26 162 1.6 1.6 0.00 0.00 0.00 49 1013.7
20260509205103 26 116 1.6 1.6 0.00 0.00 0.00 51 1013.7
20260509204559 25 87 0.0 1.6 0.00 0.00 0.00 52 1013.8
20260509204056 25 96 1.6 3.2 0.00 0.00 0.00 51 1013.6
20260509203552 25 150 0.0 0.0 0.00 0.00 0.00 52 1013.8
20260509203051 25 181 1.6 4.8 0.00 0.00 0.00 53 1014.0
20260509202550 26 109 3.2 3.2 0.00 0.00 0.00 50 1013.9